Date,TemperatureHighF,TemperatureAvgF,TemperatureLowF,DewpointHighF,DewpointAvgF,DewpointLowF,HumidityHigh,HumidityAvg,HumidityLow,PressureMaxIn,PressureMinIn,WindSpeedMaxMPH,WindSpeedAvgMPH,GustSpeedMaxMPH,PrecipitationSumIn
2013-2-1,58.7,53.2,47.2,40.3,34.9,27.7,58,50,42,30.34,30.27,1,0,4,0.00
2013-2-2,67.0,49.5,35.8,43.8,33.9,25.7,92,57,31,30.37,30.17,2,0,6,0.00
2013-2-3,66.3,53.9,44.1,43.6,38.4,31.8,94,59,28,30.20,30.05,3,0,6,0.00
2013-2-4,63.9,54.1,41.8,47.5,42.2,35.7,93,67,37,30.15,30.07,1,0,6,0.00
2013-2-5,69.7,56.7,44.1,53.7,47.0,40.9,92,72,49,30.12,30.01,1,0,6,0.00
2013-2-6,69.5,62.1,57.2,59.6,56.4,51.4,92,82,69,30.16,30.05,1,0,4,0.00
2013-2-7,75.5,66.5,60.4,65.0,62.1,57.9,97,86,68,30.12,29.82,4,1,7,0.02
2013-2-8,69.5,61.5,55.9,65.0,56.1,52.8,94,83,67,30.10,29.84,4,1,9,0.00
2013-2-9,64.2,55.7,48.2,52.9,48.4,42.9,92,78,54,30.27,30.10,2,0,5,0.00
2013-2-10,73.5,62.9,50.5,59.9,55.2,48.4,95,77,57,30.32,30.18,6,2,11,0.00
2013-2-11,80.9,70.4,62.4,65.2,62.3,58.8,91,77,58,30.20,30.07,4,1,10,0.00
2013-2-12,81.2,69.9,63.5,68.8,65.2,61.4,98,86,60,30.09,29.87,6,1,9,0.00
2013-2-13,75.3,70.4,60.4,72.4,65.6,52.3,97,85,56,29.94,29.80,5,1,10,0.29
2013-2-14,60.9,52.7,47.7,56.1,49.3,44.3,95,88,82,30.10,29.93,1,0,4,0.16
2013-2-15,65.2,51.6,42.1,50.0,45.3,39.8,94,80,55,30.12,29.99,1,0,4,0.00
2013-2-16,57.7,48.6,40.5,48.4,42.9,28.9,96,81,59,30.16,29.93,6,1,13,0.04
2013-2-17,52.8,42.3,33.5,28.5,21.6,14.4,70,46,22,30.38,30.15,3,0,11,0.00
2013-2-18,62.2,46.0,29.5,43.6,34.2,23.6,90,66,41,30.43,30.24,4,0,5,0.00
2013-2-19,58.2,49.7,44.5,51.7,46.6,42.1,94,89,79,30.25,30.16,2,0,4,0.00
2013-2-22,74.1,71.0,68.6,68.1,67.3,66.5,93,88,80,30.04,30.00,1,0,4,0.00
2013-2-23,81.6,71.6,62.2,68.8,66.0,60.8,97,84,60,30.00,29.85,7,1,17,0.38
2013-2-24,74.8,64.3,56.6,63.3,57.3,40.1,100,81,31,30.02,29.86,3,0,5,0.22
2013-2-25,66.7,61.7,57.8,66.4,60.6,55.8,99,96,90,29.96,29.81,5,1,12,1.52
2013-2-26,78.2,69.1,61.3,68.6,62.3,56.0,98,81,49,29.83,29.67,8,3,16,0.51
2013-2-27,70.1,60.5,53.7,55.8,49.0,45.3,84,67,44,29.99,29.84,6,1,15,0.00
2013-2-28,69.3,59.1,50.5,49.1,44.6,37.0,84,61,42,29.99,29.85,7,1,13,0.00